Tiempo cada hora Muratovo

Hoy, 21 Octubre, Miércoles

Tiempo Temperatura Precipitaciones Viento Presión Humedad
00:00 +1°C° 0 mm 4 mps 751 mmHg 91%
01:00 0°C° 0 mm 4 mps 751 mmHg 89%
02:00 0°C° 0 mm 4 mps 752 mmHg 87%
03:00 -1°C° 0 mm 4 mps 752 mmHg 86%
04:00 -1°C° 0 mm 4 mps 752 mmHg 88%
05:00 -1°C° 0 mm 4 mps 752 mmHg 91%
06:00 -2°C° 0 mm 5 mps 752 mmHg 93%
07:00 -2°C° 0.1 mm 6 mps 752 mmHg 87%
08:00 -2°C° 0.1 mm 6 mps 753 mmHg 82%
09:00 -1°C° 0 mm 7 mps 753 mmHg 76%
10:00 -1°C° 0 mm 7 mps 753 mmHg 70%
11:00 0°C° 0 mm 7 mps 754 mmHg 65%
12:00 0°C° 0 mm 7 mps 754 mmHg 59%
13:00 0°C° 0 mm 7 mps 754 mmHg 63%
14:00 -1°C° 0 mm 7 mps 754 mmHg 66%
15:00 -1°C° 0 mm 7 mps 755 mmHg 70%
16:00 -2°C° 0 mm 7 mps 755 mmHg 72%
17:00 -2°C° 0 mm 6 mps 755 mmHg 74%
18:00 -3°C° 0 mm 6 mps 755 mmHg 77%
19:00 -2°C° 0 mm 5 mps 755 mmHg 78%
20:00 -2°C° 0 mm 5 mps 755 mmHg 79%
21:00 -2°C° 0 mm 5 mps 755 mmHg 80%
22:00 -2°C° 0 mm 5 mps 755 mmHg 81%
23:00 -4°C° 0 mm 5 mps 756 mmHg 83%

Mañana, 22 Octubre, Jueves

Tiempo Temperatura Precipitaciones Viento Presión Humedad
00:00 -4°C° 0 mm 5 mps 756 mmHg 84%
01:00 -3°C° 0 mm 4 mps 756 mmHg 84%
02:00 -3°C° 0 mm 4 mps 756 mmHg 84%
03:00 -3°C° 0 mm 4 mps 757 mmHg 84%
04:00 -3°C° 0 mm 4 mps 757 mmHg 84%
05:00 -3°C° 0 mm 4 mps 757 mmHg 84%
06:00 -3°C° 0 mm 4 mps 757 mmHg 83%
07:00 -3°C° 0 mm 4 mps 757 mmHg 79%
08:00 -2°C° 0 mm 5 mps 757 mmHg 74%
09:00 -1°C° 0 mm 5 mps 757 mmHg 69%
10:00 -1°C° 0 mm 5 mps 757 mmHg 66%
11:00 0°C° 0 mm 5 mps 757 mmHg 62%
12:00 +1°C° 0 mm 5 mps 757 mmHg 59%
13:00 +1°C° 0 mm 4 mps 757 mmHg 60%
14:00 +1°C° 0 mm 4 mps 757 mmHg 61%
15:00 +2°C° 0 mm 3 mps 758 mmHg 62%
16:00 +1°C° 0 mm 3 mps 758 mmHg 67%
17:00 +1°C° 0 mm 2 mps 757 mmHg 72%
18:00 +1°C° 0 mm 1 mps 757 mmHg 77%
19:00 +1°C° 0 mm 1 mps 757 mmHg 78%
20:00 0°C° 0 mm 1 mps 757 mmHg 79%
21:00 0°C° 0 mm 1 mps 757 mmHg 79%
22:00 0°C° 0 mm 1 mps 757 mmHg 80%
23:00 0°C° 0 mm 1 mps 757 mmHg 80%

Pasado mañana, 23 Octubre, Viernes

Tiempo Temperatura Precipitaciones Viento Presión Humedad
00:00 -2°C° 0 mm 2 mps 756 mmHg 81%
01:00 -1°C° 0 mm 2 mps 756 mmHg 81%
02:00 -1°C° 0 mm 2 mps 756 mmHg 82%
03:00 -1°C° 0 mm 3 mps 755 mmHg 83%
04:00 -1°C° 0 mm 3 mps 755 mmHg 83%
05:00 -2°C° 0 mm 4 mps 754 mmHg 84%
06:00 -1°C° 0 mm 4 mps 754 mmHg 84%
07:00 -1°C° 0 mm 5 mps 753 mmHg 88%
08:00 0°C° 0 mm 5 mps 753 mmHg 91%
09:00 0°C° 0 mm 5 mps 752 mmHg 95%
10:00 +1°C° 0.4 mm 5 mps 752 mmHg 96%
11:00 +1°C° 0.4 mm 6 mps 751 mmHg 96%
12:00 +1°C° 0.4 mm 6 mps 751 mmHg 97%
13:00 +1°C° 0.3 mm 6 mps 750 mmHg 96%
14:00 +1°C° 0.3 mm 5 mps 750 mmHg 96%
15:00 +2°C° 0.3 mm 5 mps 749 mmHg 95%
16:00 +2°C° 0.4 mm 5 mps 749 mmHg 96%
17:00 +2°C° 0.4 mm 5 mps 749 mmHg 96%
18:00 +2°C° 0.4 mm 5 mps 748 mmHg 96%
19:00 +2°C° 0.2 mm 5 mps 748 mmHg 97%
20:00 +4°C° 0.2 mm 4 mps 748 mmHg 97%
21:00 +4°C° 0.2 mm 3 mps 748 mmHg 98%
22:00 +5°C° 0 mm 3 mps 747 mmHg 97%
23:00 +5°C° 0 mm 3 mps 747 mmHg 97%

24 Octubre, Sábado

Tiempo Temperatura Precipitaciones Viento Presión Humedad
00:00 +7°C° 0 mm 3 mps 747 mmHg 97%
01:00 +6°C° 0.3 mm 4 mps 746 mmHg 97%
02:00 +6°C° 0.3 mm 4 mps 746 mmHg 97%
03:00 +7°C° 0.3 mm 5 mps 745 mmHg 96%
04:00 +7°C° 0.9 mm 5 mps 745 mmHg 96%
05:00 +7°C° 0.9 mm 6 mps 744 mmHg 96%
06:00 +7°C° 0.9 mm 6 mps 743 mmHg 95%
07:00 +8°C° 1 mm 6 mps 743 mmHg 94%
08:00 +8°C° 1 mm 6 mps 743 mmHg 94%
09:00 +8°C° 1 mm 5 mps 743 mmHg 93%
10:00 +9°C° 0.1 mm 6 mps 743 mmHg 90%
11:00 +9°C° 0.1 mm 6 mps 744 mmHg 87%
12:00 +10°C° 0.1 mm 6 mps 744 mmHg 83%
13:00 +10°C° 0.1 mm 6 mps 745 mmHg 82%
14:00 +10°C° 0.1 mm 6 mps 745 mmHg 80%
15:00 +10°C° 0.1 mm 6 mps 746 mmHg 78%
16:00 +9°C° 0 mm 5 mps 746 mmHg 81%
17:00 +8°C° 0 mm 5 mps 747 mmHg 84%
18:00 +7°C° 0 mm 4 mps 747 mmHg 87%
19:00 +7°C° 0 mm 4 mps 748 mmHg 86%
20:00 +7°C° 0 mm 4 mps 748 mmHg 85%
21:00 +7°C° 0 mm 4 mps 749 mmHg 84%
22:00 +8°C° 0 mm 3 mps 749 mmHg 85%
23:00 +8°C° 0 mm 3 mps 749 mmHg 85%

25 Octubre, Domingo

Tiempo Temperatura Precipitaciones Viento Presión Humedad
00:00 +8°C° 0 mm 3 mps 749 mmHg 86%
01:00 +8°C° 0 mm 3 mps 749 mmHg 87%
02:00 +7°C° 0 mm 3 mps 750 mmHg 88%
03:00 +7°C° 0 mm 3 mps 750 mmHg 90%
04:00 +7°C° 0 mm 3 mps 750 mmHg 88%
05:00 +7°C° 0 mm 3 mps 750 mmHg 87%
06:00 +7°C° 0 mm 3 mps 751 mmHg 86%
07:00 +8°C° 0 mm 3 mps 751 mmHg 84%
08:00 +8°C° 0 mm 2 mps 751 mmHg 83%
09:00 +8°C° 0 mm 2 mps 751 mmHg 82%
10:00 +9°C° 0.1 mm 2 mps 751 mmHg 77%
11:00 +10°C° 0.1 mm 2 mps 752 mmHg 71%
12:00 +10°C° 0.1 mm 2 mps 752 mmHg 66%
13:00 +10°C° 0.1 mm 2 mps 752 mmHg 68%
14:00 +10°C° 0.1 mm 2 mps 752 mmHg 70%
15:00 +11°C° 0.1 mm 1 mps 752 mmHg 72%
16:00 +10°C° 0 mm 1 mps 752 mmHg 74%
17:00 +9°C° 0 mm 1 mps 753 mmHg 77%
18:00 +9°C° 0 mm 1 mps 753 mmHg 79%
19:00 +7°C° 0 mm 2 mps 753 mmHg 81%
20:00 +7°C° 0 mm 2 mps 754 mmHg 84%
21:00 +7°C° 0 mm 2 mps 754 mmHg 86%
22:00 +6°C° 0 mm 2 mps 755 mmHg 86%
23:00 +5°C° 0 mm 2 mps 755 mmHg 87%

26 Octubre, Lunes

Tiempo Temperatura Precipitaciones Viento Presión Humedad
00:00 +5°C° 0 mm 2 mps 755 mmHg 87%
01:00 +4°C° 0 mm 2 mps 756 mmHg 89%
02:00 +3°C° 0 mm 3 mps 756 mmHg 91%
03:00 +3°C° 0 mm 3 mps 756 mmHg 93%
04:00 +2°C° 0 mm 3 mps 757 mmHg 93%
05:00 +2°C° 0 mm 3 mps 757 mmHg 94%
06:00 +2°C° 0 mm 3 mps 758 mmHg 94%
07:00 +2°C° 0 mm 3 mps 758 mmHg 91%
08:00 +3°C° 0 mm 3 mps 759 mmHg 88%
09:00 +3°C° 0 mm 3 mps 759 mmHg 85%
10:00 +4°C° 0 mm 3 mps 759 mmHg 77%
11:00 +6°C° 0 mm 2 mps 760 mmHg 69%
12:00 +7°C° 0 mm 2 mps 760 mmHg 61%
13:00 +7°C° 0 mm 2 mps 760 mmHg 62%
14:00 +7°C° 0 mm 2 mps 760 mmHg 63%
15:00 +7°C° 0 mm 2 mps 761 mmHg 63%
16:00 +6°C° 0 mm 2 mps 761 mmHg 69%
17:00 +6°C° 0 mm 1 mps 761 mmHg 74%
18:00 +5°C° 0 mm 1 mps 761 mmHg 79%
19:00 +5°C° 0 mm 1 mps 762 mmHg 82%
20:00 +5°C° 0 mm 1 mps 762 mmHg 85%
21:00 +5°C° 0 mm 1 mps 762 mmHg 87%
22:00 +5°C° 0 mm 1 mps 762 mmHg 88%
23:00 +5°C° 0 mm 1 mps 762 mmHg 89%

27 Octubre, Martes

Tiempo Temperatura Precipitaciones Viento Presión Humedad
00:00 +4°C° 0 mm 1 mps 763 mmHg 90%
01:00 +4°C° 0 mm 1 mps 763 mmHg 90%
02:00 +4°C° 0 mm 1 mps 763 mmHg 90%
03:00 +4°C° 0 mm 1 mps 763 mmHg 90%
04:00 +4°C° 0 mm 1 mps 763 mmHg 90%
05:00 +4°C° 0 mm 1 mps 763 mmHg 90%
06:00 +4°C° 0 mm 1 mps 764 mmHg 90%
07:00 +4°C° 0 mm 1 mps 764 mmHg 88%
08:00 +5°C° 0 mm 1 mps 764 mmHg 86%
09:00 +6°C° 0 mm 1 mps 764 mmHg 84%
10:00 +7°C° 0 mm 1 mps 764 mmHg 80%
11:00 +8°C° 0 mm 1 mps 764 mmHg 76%
12:00 +8°C° 0 mm 2 mps 765 mmHg 72%
13:00 +10°C° 0 mm 1 mps 765 mmHg 73%
14:00 +10°C° 0 mm 1 mps 765 mmHg 74%
15:00 +10°C° 0 mm 1 mps 765 mmHg 76%
16:00 +9°C° 0 mm 1 mps 765 mmHg 79%
17:00 +8°C° 0 mm 1 mps 765 mmHg 83%
18:00 +7°C° 0 mm 1 mps 765 mmHg 86%
19:00 +6°C° 0 mm 1 mps 765 mmHg 87%
20:00 +6°C° 0 mm 1 mps 765 mmHg 88%
21:00 +6°C° 0 mm 1 mps 765 mmHg 88%
22:00 +6°C° 0 mm 1 mps 765 mmHg 89%
23:00 +5°C° 0 mm 1 mps 765 mmHg 89%
Mostrar más

Necesitamos Su Consentimiento

Meteoprog y nuestros Proveedores de Servicios pueden almacenar y acceder a sus datos personales como cookies, identificadores de dispositivo u otras tecnologías similares de su dispositivo y procesar dichos datos para personalizar contenido y anuncios, además de ofrecer funciones de redes sociales y analizar el tráfico.

  • Almacenar y/o acceder a información en su dispositivo

    Se puede almacenar o acceder a cookies, identificadores de dispositivo u otra información de su dispositivo para los fines anteriormente indicados.

  • Anuncios y contenido personalizados, medición de anuncios y contenido, percepciones del público, y desarrollo de productos

    Los anuncios y el contenido pueden personalizarse en base a su perfil. Se pueden añadir más datos para personalizar mejor los anuncios y contenidos. Se puede medir el rendimiento de los anuncios y contenidos. Se puede obtener la percepción sobre el público que ha visto los anuncios y contenidos. Dichos datos pueden usarse para desarrollar o mejorar la experiencia del usuario, sistemas y software.

Al hacer clic en ‘Estoy De Acuerdo’ usted permitirá el uso de las cookies, identificadores de dispositivo, balizas web u otras tecnologías similares indicadas. Su configuración puede cambiarse desde el navegador de su dispositivo.

Para ciertos fines, los intereses legítimos pueden ser considerados por encima del consentimiento. Puede leer más sobre ello en nuestra Política de Privacidad y Cookies.